Weather History for KCZZ - August, 2012

Change the Weather History Date:

Saturday, August 11, 2012

  Actual Average Record
Temperature  
Mean Temperature 82 °F 74 °F  
Max Temperature 100 °F 95 °F 104 °F (2000)
Min Temperature 64 °F 54 °F 37 °F (1988)
Degree Days  
Heating Degree Days 0 0  
Month to date heating degree days 0 0  
Since 1 June heating degree days 65 63  
Since 1 July heating degree days 9 7  
Cooling Degree Days 17 9  
Month to date cooling degree days 154 99  
Year to date cooling degree days 425 471  
Since 1 June cooling degree days 402 441  
Growing Degree Days 32 (Base 50)    
Moisture  
Dew Point 60 °F    
Average Humidity 56    
Maximum Humidity 87    
Minimum Humidity 24    
Precipitation  
Precipitation 0.26 in 0.03 in 0.38 in (1971)
Month to date precipitation 0.37 0.25  
Year to date precipitation 6.77 10.72  
Since 1 July precipitation 0.72  
Snow  
Snow 0.00 in - - ()
Month to date snowfall 0.0  
Year to date snowfall 0.0  
Snow Depth 0.00 in    
Sea Level Pressure  
Sea Level Pressure 29.76 in    
Wind  
Wind Speed 9 mph (NE)    
Max Wind Speed 33 mph    
Max Gust Speed 44 mph    
T = Trace of Precipitation, MM = Missing Value Source: NWS Daily Summary

Daily Weather History Graph

Daily Weather History Graph

Search for Another Location

Airport or City:

Trip Planner

Search our weather history database for the weather conditions in past years. The results will help you decide how hot, cold, wet, or windy it might be!

Date:

Astronomy

Aug. 11, 2012 Rise Set
Actual Time 6:07 AM PDT 7:34 PM PDT
Civil Twilight 5:41 AM PDT 8:00 PM PDT
Nautical Twilight 5:09 AM PDT 8:31 PM PDT
Astronomical Twilight 4:36 AM PDT 9:04 PM PDT
Moon 12:44 AM PDT (8/11) 3:06 PM PDT (8/11)
Length of Visible Light 14h 19m
Length of Day
13h 27m
Waning Crescent, 31% of the Moon is Illuminated
Aug 11
Waning Crescent
Aug 17
New
Aug 24
First Quarter
Aug 31
Full
Sep 8
Last Quarter

Hourly Weather History & Observations

Time (PDT) Temp. Heat Index Dew Point Humidity Pressure Visibility Wind Dir Wind Speed Gust Speed Precip Events Conditions
12:52 AM 71.1 °F - 55.0 °F 57% 29.72 in - NE 4.6 mph - N/A   Unknown
1:52 AM 70.0 °F - 55.9 °F 61% 29.71 in - NNE 3.5 mph - N/A   Unknown
2:52 AM 69.1 °F - 55.9 °F 63% 29.71 in - North 3.5 mph - N/A   Unknown
3:52 AM 69.1 °F - 55.0 °F 61% 29.71 in - ENE 3.5 mph - N/A   Unknown
4:52 AM 66.9 °F - 55.9 °F 68% 29.70 in - ENE 4.6 mph - N/A   Unknown
5:52 AM 64.0 °F - 55.0 °F 73% 29.73 in - Calm Calm - N/A   Unknown
6:52 AM 64.9 °F - 53.1 °F 65% 29.75 in - Calm Calm - N/A   Unknown
7:52 AM 75.0 °F - 57.0 °F 53% 29.75 in - Calm Calm - N/A   Unknown
8:52 AM 93.0 °F 91.4 °F 55.9 °F 29% 29.73 in - ENE 17.3 mph 25.3 mph N/A   Unknown
9:52 AM 93.9 °F 92.2 °F 55.9 °F 28% 29.74 in - ENE 17.3 mph 25.3 mph N/A   Unknown
10:52 AM 96.1 °F 94.1 °F 55.0 °F 25% 29.73 in - ENE 18.4 mph 31.1 mph N/A   Unknown
11:52 AM 99.0 °F 97.7 °F 55.9 °F 24% 29.71 in - ENE 19.6 mph 27.6 mph N/A   Unknown
12:52 PM 99.0 °F 97.7 °F 55.9 °F 24% 29.70 in - NE 18.4 mph 28.8 mph N/A   Unknown
1:52 PM 87.1 °F 86.5 °F 59.0 °F 39% 29.75 in - SSW 24.2 mph 34.5 mph N/A   Unknown
2:16 PM 80.6 °F 81.5 °F 60.8 °F 51% 29.87 in - East 33.4 mph 43.7 mph 0.11 in   Unknown
2:20 PM 75.2 °F - 62.6 °F 65% 29.87 in - ENE 27.6 mph 43.7 mph 0.15 in   Unknown
2:26 PM 77.0 °F - 62.6 °F 61% 29.88 in - NNE 9.2 mph 34.5 mph 0.26 in   Unknown
2:52 PM 77.0 °F - 68.0 °F 74% 29.78 in - ENE 5.8 mph - 0.26 in   Unknown
3:52 PM 75.9 °F - 71.1 °F 85% 29.78 in - NNE 5.8 mph - N/A   Unknown
4:52 PM 79.0 °F - 70.0 °F 74% 29.77 in - North 4.6 mph - N/A   Unknown
5:52 PM 84.0 °F 85.4 °F 64.0 °F 51% 29.77 in - WSW 3.5 mph - N/A   Unknown
6:52 PM 84.0 °F 84.9 °F 63.0 °F 49% 29.76 in - WSW 4.6 mph - N/A   Unknown
7:52 PM 81.0 °F 81.7 °F 61.0 °F 50% 29.77 in - Calm Calm - N/A   Unknown
8:52 PM 73.9 °F - 64.9 °F 73% 29.77 in - Calm Calm - N/A   Unknown
9:52 PM 71.1 °F - 64.9 °F 81% 29.78 in - NE 4.6 mph - N/A   Unknown
10:52 PM 71.1 °F - 64.0 °F 78% 29.78 in - Calm Calm - N/A   Unknown
11:52 PM 69.1 °F - 64.0 °F 84% 29.78 in - NE 3.5 mph - N/A   Unknown